This is the latest recevied weather packets stored in our database for station/object IR9AK-10. If no packets are shown the sender has not sent any weather packets the latest 10 day(s).
| Time | Temp. | Humidity | Pressure | Rain* | Wind** | Luminosity | Snow |
|---|---|---|---|---|---|---|---|
| 1787852477 | 43.33° C | 41% | 1062.1 hPa | - | - | - | - |
| 1787851878 | 43.33° C | 42% | 1062.1 hPa | - | - | - | - |
| 1787851278 | 43.89° C | 41% | 1062.1 hPa | - | - | - | - |
| 1787850679 | 43.33° C | 42% | 1062 hPa | - | - | - | - |
| 1787850080 | 44.44° C | 34% | 1061.8 hPa | - | - | - | - |
| 1787849480 | 45° C | 28% | 1061.5 hPa | - | - | - | - |
| 1787848881 | 45° C | 32% | 1061.6 hPa | - | - | - | - |
| 1787848281 | 45° C | 30% | 1061.6 hPa | - | - | - | - |
| 1787847683 | 46.11° C | 28% | 1061.4 hPa | - | - | - | - |
| 1787847311 | 46.11° C | 25% | 1061.3 hPa | - | - | - | - |
| 1787847084 | 46.11° C | 25% | 1061.3 hPa | - | - | - | - |
| 1787846485 | 46.11° C | 26% | 1061.3 hPa | - | - | - | - |
| 1787845886 | 46.11° C | 26% | 1061.3 hPa | - | - | - | - |
| 1787845287 | 46.67° C | 26% | 1061.3 hPa | - | - | - | - |
| 1787844689 | 46.67° C | 25% | 1061.4 hPa | - | - | - | - |
| 1787844089 | 46.67° C | 25% | 1061.4 hPa | - | - | - | - |
| 1787843489 | 46.67° C | 22% | 1061.3 hPa | - | - | - | - |
| 1787842891 | 46.67° C | 20% | 1061.5 hPa | - | - | - | - |
| 1787842292 | 46.11° C | 25% | 1061.6 hPa | - | - | - | - |
| 1787841693 | 46.67° C | 28% | 1061.7 hPa | - | - | - | - |
| 1787841094 | 46.11° C | 29% | 1061.7 hPa | - | - | - | - |
| 1787840495 | 45° C | 33% | 1061.8 hPa | - | - | - | - |
| 1787839896 | 45° C | 34% | 1061.8 hPa | - | - | - | - |
| 1787839296 | 44.44° C | 30% | 1061.8 hPa | - | - | - | - |
| 1787838697 | 45.56° C | 33% | 1061.3 hPa | - | - | - | - |
* Rain since midnight (hover to see other rain measurements)
** Current wind speed in m/s (hover to see current wind gust speed)